Theta_e
348 352 356 348 360 358 361 358 353 354 354 349 347 350 353 352 353 354 345 344 341 343 347 351 354 352 352 350 350 352 349 349 348 347 349 352 349 347 353 352 351 348 349 351 352 352 351 350 349
353 358 352 350 362 360 362 356 356 353 350 349 349 350 351 355 349 348 344 344 343 345 349 352 354 351 351 349 350 351 347 348 347 349 351 348 348 351 352 349 349 351 350 351 352 352 352 350 350
351 356 353 357 359 362 361 354 353 350 347 348 350 347 349 351 347 344 344 345 345 348 349 351 351 352 350 348 349 349 348 347 347 349 352 350 349 352 351 351 349 352 350 353 352 352 352 351 351
353 351 351 358 358 355 356 353 350 349 346 346 347 349 346 345 344 345 345 345 348 350 350 351 349 348 349 348 348 349 349 348 349 349 348 352 352 352 353 348 349 351 351 350 351 350 350 351 350
345 349 358 357 357 355 352 350 349 349 348 347 346 350 348 345 345 346 346 346 347 349 349 351 351 351 350 350 348 347 348 349 348 350 352 353 353 351 351 352 347 352 352 352 351 351 350 348 347
353 352 357 359 355 352 351 349 348 349 348 347 348 349 349 348 347 347 346 346 345 347 349 350 351 350 350 349 349 349 350 349 348 350 352 352 350 351 352 349 353 353 352 351 351 350 349 344 346
353 356 357 354 352 354 351 346 349 350 350 349 347 351 350 348 348 347 346 346 345 346 350 351 350 352 349 349 349 349 350 350 350 351 352 352 352 352 348 349 351 353 352 351 350 346 350 347 345
351 353 356 355 353 353 349 347 347 349 351 346 346 351 352 348 347 347 346 345 346 347 349 352 351 354 354 353 351 350 349 352 351 352 353 350 351 352 352 348 352 353 353 352 350 346 346 348 342
349 357 355 351 352 351 347 349 347 345 349 347 348 348 345 347 346 346 345 345 346 348 349 351 351 354 352 353 353 351 352 352 352 352 350 348 351 352 352 349 350 353 351 346 346 344 343 344 342
353 356 351 347 345 348 349 349 348 349 350 350 351 347 347 346 346 344 344 344 345 347 347 349 351 352 352 351 352 354 354 351 351 352 352 354 352 352 352 349 349 352 351 349 345 343 341 339 341
356 354 352 349 345 347 349 348 346 349 351 350 352 350 348 347 344 343 343 343 342 343 345 347 350 352 350 351 353 351 352 352 352 352 351 351 350 351 350 350 350 351 350 352 350 350 347 348 346
355 353 354 352 346 348 350 348 348 348 348 345 348 348 348 348 346 344 346 346 345 344 345 346 348 351 350 351 351 351 350 351 350 351 351 351 351 351 351 351 351 349 349 341 348 347 348 348 342
354 349 348 350 345 347 348 349 349 348 346 346 348 348 349 348 348 347 348 347 347 346 345 345 348 349 349 348 351 350 349 349 350 350 350 351 353 353 353 353 353 353 351 347 351 350 350 349 349
346 348 345 345 346 348 350 349 348 347 348 349 350 350 349 349 348 348 348 348 348 346 343 344 346 345 346 346 344 348 347 349 350 350 350 346 351 352 353 353 352 353 353 351 349 348 350 351 351
345 346 345 347 347 350 349 353 351 348 348 350 350 351 350 349 349 349 349 349 349 347 346 343 345 347 345 345 341 347 346 346 348 349 348 348 348 350 350 353 353 353 351 350 349 349 348 348 349
344 345 348 346 349 349 348 353 351 349 350 351 350 351 351 350 349 349 349 349 348 348 347 347 345 346 348 348 344 347 349 349 349 350 349 348 348 349 349 351 353 353 352 352 353 352 353 352 353
347 347 346 346 348 350 350 351 347 349 350 351 351 350 350 351 349 349 349 348 348 348 348 349 348 348 349 347 349 349 350 350 352 353 353 351 350 350 350 353 353 352 353 352 353 353 353 353 354
348 347 344 346 346 349 351 350 349 349 349 350 351 350 350 351 351 349 348 347 347 348 349 348 349 349 347 350 348 351 351 351 350 351 351 350 351 350 350 353 352 352 354 354 353 350 354 355 354
346 346 344 343 342 347 349 349 349 350 349 350 350 350 350 350 348 348 348 348 346 346 348 348 349 349 349 350 350 351 351 351 351 347 348 348 347 348 349 353 352 351 351 354 352 354 356 355 355
340 339 339 339 343 347 348 351 349 349 350 349 349 349 348 346 346 345 345 347 347 346 347 348 347 347 348 350 350 350 350 350 350 349 346 349 348 348 349 349 352 351 354 354 354 355 356 356 355
339 335 337 338 346 345 346 349 349 348 349 349 348 347 346 346 346 345 344 344 345 346 347 347 344 346 347 349 351 349 349 349 350 350 350 348 349 349 349 349 350 351 353 356 356 356 357 356 356
337 334 334 334 339 341 345 348 350 349 350 349 348 347 346 346 345 345 345 345 345 345 346 347 346 344 346 348 350 350 351 351 351 349 350 352 351 348 347 349 351 351 355 353 356 356 356 357 357
334 332 331 339 342 344 347 350 350 347 350 350 349 347 346 346 345 345 345 344 344 345 346 347 347 346 347 348 348 351 351 352 352 351 351 349 351 350 349 349 350 351 354 354 353 355 357 357 357
332 333 331 335 340 346 340 348 344 348 350 348 348 348 347 346 345 345 344 344 345 345 346 348 349 346 346 346 347 351 351 352 352 352 351 352 355 355 350 350 351 351 352 352 354 355 357 358 358
331 333 338 339 341 340 337 346 344 343 343 344 343 347 347 346 345 345 346 344 344 345 346 348 349 350 348 347 349 349 349 351 352 353 351 351 354 355 353 351 351 355 353 353 354 355 356 359 360
331 330 335 341 339 338 335 340 339 337 334 334 336 343 346 346 346 345 345 345 345 345 346 347 348 349 350 350 348 347 348 351 352 352 351 351 352 355 353 351 354 353 352 354 355 357 358 357 359
330 332 331 333 329 334 336 337 334 336 336 336 340 342 345 346 345 346 346 346 345 345 346 347 348 348 349 349 350 351 349 350 351 349 350 351 350 353 351 351 354 355 354 355 357 358 355 357 359
329 329 330 333 337 339 337 337 337 340 339 337 337 343 344 344 345 345 346 346 346 346 345 346 347 347 346 349 351 351 351 347 347 349 350 351 350 348 350 352 353 354 355 356 356 358 357 359 361
327 331 330 331 333 336 338 336 337 337 336 335 332 338 344 344 344 345 345 346 346 346 346 346 347 348 348 349 349 350 350 350 348 351 350 348 349 347 350 352 353 354 356 355 357 355 356 358 362
323 326 328 330 333 333 333 333 332 334 333 331 330 331 338 344 344 344 345 345 348 348 347 347 347 347 348 347 349 350 351 351 351 352 353 353 353 350 349 353 357 358 358 356 358 359 358 359 359
Wind_Speed
3 1 4 0 1 2 3 3 1 8 6 2 14 4 4 3 1 2 8 9 19 20 16 14 12 13 14 11 10 10 11 10 10 11 11 11 12 11 11 11 10 10 10 10 10 10 9 9 10
5 1 3 1 3 3 2 2 7 3 7 14 10 7 3 3 3 8 13 12 19 18 15 14 12 13 13 11 9 10 9 10 9 10 11 11 11 11 12 11 11 11 9 12 11 11 10 9 10
4 1 2 2 2 2 3 1 7 12 10 9 5 5 2 2 4 17 7 20 18 16 14 13 14 13 11 10 9 9 10 9 9 10 10 12 11 10 11 11 11 11 10 11 10 10 9 7 8
0 1 1 2 5 1 1 4 12 10 8 5 10 7 4 2 15 7 19 20 18 15 13 13 13 13 12 10 9 8 9 9 9 9 10 11 10 9 9 10 11 11 10 10 9 8 7 7 7
0 1 2 3 3 1 1 8 7 5 4 6 3 5 7 3 5 16 20 18 17 15 13 11 12 11 10 9 9 9 9 9 9 9 10 10 10 8 9 8 10 11 9 9 8 7 6 6 6
2 0 2 3 2 2 3 9 7 5 6 7 9 9 4 3 12 18 18 17 15 16 13 11 11 10 10 9 9 9 10 9 8 10 9 9 9 8 7 8 7 8 8 7 6 5 4 4 5
2 1 2 1 2 1 3 7 5 5 6 5 11 6 4 6 13 16 16 14 14 14 13 11 10 10 9 9 9 9 9 9 9 8 7 8 7 7 6 6 5 6 5 4 3 3 3 3 4
1 1 2 1 3 0 8 8 7 4 3 10 4 5 7 11 17 16 14 13 13 13 12 10 10 9 9 8 9 9 9 8 7 6 8 6 5 5 7 5 4 4 3 3 3 2 3 3 3
1 1 1 2 5 2 11 7 5 5 9 3 3 4 12 23 20 16 14 13 13 12 12 10 10 9 10 9 8 7 7 7 6 6 5 5 4 4 3 3 3 2 2 3 4 4 2 2 4
1 0 2 2 4 4 15 11 10 5 10 2 5 9 22 23 21 18 17 16 16 15 14 12 10 9 9 8 8 7 7 7 7 6 6 4 4 3 3 2 2 0 1 1 1 1 2 2 4
2 1 1 2 6 8 13 9 7 9 8 9 10 16 19 21 18 17 16 15 16 15 13 13 11 10 9 8 9 9 8 8 7 7 5 4 3 3 2 2 2 2 3 2 3 4 6 5 6
2 4 4 4 5 10 13 10 7 10 1 9 12 19 19 16 17 18 15 13 12 13 12 12 13 11 10 9 10 8 8 8 7 7 6 5 4 3 2 2 2 2 3 4 4 5 6 7 9
3 3 3 5 9 8 10 10 5 10 3 11 17 18 17 16 18 17 15 13 13 13 13 14 14 13 12 12 9 9 9 8 7 7 7 7 5 4 4 4 4 4 4 5 5 7 9 10 11
3 5 6 4 11 10 11 6 6 9 10 13 17 18 16 16 18 16 16 16 15 13 13 15 15 15 14 13 12 10 10 9 9 9 8 9 7 6 6 6 6 6 7 7 8 10 10 11 10
5 4 2 5 11 7 10 6 11 10 14 15 16 14 14 15 18 19 19 17 16 15 12 15 15 15 15 14 13 10 10 10 9 9 10 10 9 9 9 8 8 8 9 11 12 12 12 12 12
3 1 3 5 11 6 10 7 13 15 16 17 16 14 14 15 20 18 18 18 17 16 16 14 15 16 16 15 15 12 11 10 10 10 10 11 11 11 11 11 9 8 8 8 9 10 11 12 11
4 10 10 4 12 8 12 6 6 16 16 16 16 15 15 14 16 19 20 20 19 19 18 19 19 18 19 17 14 13 10 11 10 10 12 13 13 12 13 11 10 10 8 8 7 9 10 12 12
15 15 12 11 5 12 12 14 6 15 17 18 17 16 16 15 19 23 23 21 21 20 20 20 20 20 20 16 16 12 12 12 12 12 14 15 15 15 15 12 11 10 9 8 8 11 9 11 11
10 11 15 16 6 10 16 17 14 16 16 15 16 16 17 18 22 22 23 22 21 20 20 22 23 24 20 17 15 14 15 13 12 12 11 12 14 15 15 12 12 13 11 8 8 8 9 10 7
8 14 13 8 3 10 8 16 13 17 22 21 19 17 18 19 16 18 23 24 26 26 26 24 28 27 28 21 17 14 12 13 13 12 13 11 12 13 15 14 14 14 10 11 10 9 8 7 6
11 13 13 7 4 5 6 8 11 13 17 18 18 18 18 19 18 17 19 24 25 26 26 27 31 30 30 28 18 16 13 14 13 17 15 14 13 12 13 14 14 14 11 10 10 10 8 8 7
14 6 10 13 8 5 2 5 4 11 15 17 20 19 19 20 19 17 18 21 24 28 27 27 30 32 30 29 21 20 19 17 17 16 16 13 11 12 14 14 15 14 12 13 10 8 8 7 8
12 5 7 5 3 3 3 4 2 1 11 19 22 22 22 21 21 20 19 25 27 24 26 26 27 29 29 28 29 24 22 19 16 13 14 15 11 14 15 15 15 15 14 15 16 13 10 8 9
7 8 1 1 1 4 1 4 3 4 5 7 18 23 23 21 20 19 25 25 23 24 24 23 24 31 30 31 29 28 25 23 16 14 15 14 9 7 12 14 15 15 15 15 14 15 15 12 10
1 4 5 4 4 3 2 4 9 10 12 12 10 19 23 20 19 18 18 21 24 26 27 26 25 26 28 29 28 31 31 26 22 20 16 16 13 11 12 13 15 13 13 12 12 13 14 13 13
8 5 5 4 5 10 2 5 6 5 9 10 9 13 19 19 17 18 20 24 26 28 29 28 26 26 25 27 31 34 33 24 22 20 19 18 16 14 13 13 13 12 12 12 12 12 12 10 11
4 7 6 7 1 3 3 6 12 1 10 9 7 9 15 19 18 19 17 23 26 28 31 32 29 27 27 28 29 30 32 29 24 27 22 19 21 16 17 16 16 14 14 11 12 11 11 11 12
7 7 4 3 5 7 5 4 11 11 13 12 11 5 11 15 17 17 16 22 27 29 29 30 32 34 35 29 27 29 30 33 30 27 25 22 20 21 20 18 16 15 15 14 15 12 11 12 11
3 5 3 3 3 8 8 7 4 6 9 10 11 5 10 14 16 17 17 24 29 27 28 32 32 32 29 30 29 28 28 29 30 26 26 26 23 23 22 21 21 18 16 15 13 11 13 13 9
5 3 4 5 6 3 4 12 4 4 6 8 12 12 6 13 17 18 17 21 24 27 29 30 31 31 32 33 30 29 28 28 26 27 26 24 25 24 24 22 19 17 16 16 13 11 11 9 8
Wind_Direction
183 263 327 243 119 79 76 80 97 123 134 175 151 201 184 69 200 31 132 141 150 152 153 152 144 149 154 147 133 121 120 121 128 131 132 131 138 136 127 127 130 126 127 125 119 114 119 122 122
154 116 341 59 70 82 57 337 106 113 121 125 116 121 110 99 62 110 137 150 150 150 153 150 144 147 148 147 136 121 125 125 130 129 134 130 126 130 128 129 138 133 130 125 122 125 126 131 126
113 81 344 51 79 99 131 106 110 116 143 149 114 54 63 63 94 144 137 147 149 150 151 154 151 140 147 149 134 134 131 129 133 131 133 122 131 125 130 132 133 123 119 123 128 127 127 128 128
126 116 109 53 92 117 256 133 134 124 102 86 119 83 92 302 140 156 147 148 148 151 153 157 156 153 157 150 145 139 135 135 129 140 131 130 126 126 126 123 127 128 129 126 124 117 125 126 134
312 193 65 92 78 58 235 139 138 123 97 114 136 111 108 99 139 143 149 153 153 153 156 156 153 154 157 156 150 147 144 140 144 138 124 130 126 138 123 123 123 130 124 116 112 124 142 138 140
242 244 96 76 40 4 98 147 134 100 105 117 109 112 125 104 143 151 154 155 157 156 156 160 162 155 158 158 153 153 152 146 145 144 130 133 132 118 131 128 120 112 109 111 112 133 145 154 174
283 61 86 117 112 103 152 162 135 133 138 125 131 115 107 150 150 151 154 153 155 158 158 159 161 161 165 167 155 150 150 156 150 153 147 133 136 137 137 126 129 115 110 111 118 135 139 198 200
20 350 125 201 193 185 161 160 152 147 84 127 135 151 157 161 153 149 151 154 159 163 165 164 163 165 162 164 161 160 157 150 160 157 150 149 120 141 137 126 127 110 97 101 114 145 151 206 220
333 65 192 201 178 154 165 158 145 102 140 154 118 117 133 146 150 150 154 162 169 172 177 174 172 168 172 165 165 156 154 156 161 153 154 133 152 142 119 158 123 91 77 83 99 118 125 227 244
274 127 192 208 228 203 180 177 150 144 163 149 117 101 136 150 160 164 172 177 179 181 187 185 181 176 174 167 166 169 159 162 168 172 174 176 174 163 141 168 153 150 356 29 112 222 302 316 274
135 303 328 276 231 180 171 174 161 151 192 205 174 152 154 160 171 179 186 187 186 187 191 194 188 183 180 176 174 176 173 173 182 186 189 192 191 183 179 212 243 272 272 276 290 287 277 286 294
289 241 241 294 147 156 169 166 180 181 96 193 166 161 160 169 179 187 193 193 189 196 201 198 196 191 188 185 186 186 184 183 187 193 191 196 199 206 210 245 263 255 260 278 278 287 289 288 289
223 302 277 236 159 173 155 182 179 192 116 143 146 163 173 181 184 192 198 199 198 202 198 197 196 197 194 193 192 189 189 195 198 199 203 203 212 232 251 266 273 278 275 289 287 288 291 294 288
255 246 281 167 170 160 172 169 182 188 145 148 161 176 181 189 192 193 201 203 205 202 197 193 196 200 198 198 196 192 192 198 205 208 209 218 225 239 254 269 281 275 275 281 291 295 290 287 283
270 267 166 144 166 159 148 162 216 169 168 166 178 186 191 195 196 203 204 206 208 209 200 199 199 201 201 201 199 197 200 205 212 220 222 227 236 254 264 270 277 284 285 284 284 288 296 296 297
305 281 300 162 164 160 194 257 199 170 172 178 187 189 199 205 207 210 209 210 209 209 206 202 200 202 202 201 198 200 205 211 220 227 232 239 246 258 270 274 279 287 290 280 276 280 283 290 296
35 330 313 304 197 158 203 273 188 175 183 183 189 200 206 210 216 215 214 214 211 209 206 206 204 205 205 208 209 214 221 228 238 242 244 246 251 258 268 270 277 287 280 283 273 277 282 304 309
327 324 317 306 206 199 207 240 184 187 189 191 191 203 210 214 221 216 214 213 214 212 210 210 209 212 214 214 218 225 233 241 247 248 242 248 251 256 262 265 270 273 270 267 274 287 287 291 297
298 294 307 304 256 228 234 242 210 193 202 204 201 201 214 220 224 219 220 219 216 214 211 211 211 215 212 211 215 227 232 236 243 237 243 255 250 253 261 256 262 264 260 262 278 281 294 309 319
310 320 323 304 349 220 280 255 235 200 206 206 202 201 213 223 225 220 217 215 216 215 212 212 216 216 219 213 214 214 221 229 231 235 246 259 246 240 247 252 253 256 259 269 272 281 295 298 316
320 312 319 318 347 208 294 270 223 221 217 216 218 216 212 221 222 220 213 211 213 214 213 213 220 218 221 219 215 223 229 231 241 241 246 248 251 243 243 248 252 258 257 269 276 272 271 298 312
310 326 293 319 310 316 265 308 256 224 214 215 218 214 215 215 220 224 216 207 207 213 212 214 220 221 223 222 215 212 216 220 231 232 229 240 253 241 250 254 256 262 260 271 282 279 269 269 303
291 336 333 332 299 261 175 264 279 23 230 224 222 218 219 216 215 216 215 213 208 206 205 210 217 221 220 221 219 215 218 226 235 229 228 236 259 246 250 258 262 266 266 270 278 282 279 276 278
300 298 316 70 304 257 50 247 290 212 225 236 219 220 220 215 215 217 216 214 211 204 202 203 208 220 221 224 224 218 218 222 224 227 225 231 242 246 248 256 262 266 267 272 279 279 276 271 268
174 312 304 259 238 313 56 219 261 266 252 251 267 213 216 212 210 210 209 206 207 203 201 200 205 209 214 217 218 221 224 226 225 229 232 232 238 243 249 271 277 273 278 285 294 296 286 272 269
258 265 271 288 302 316 131 251 293 277 306 283 277 235 211 207 207 205 208 204 202 201 202 202 205 211 211 214 218 222 225 223 227 231 231 235 238 245 257 274 277 277 278 291 296 304 302 294 289
186 216 280 254 176 245 289 277 284 299 323 323 338 223 205 201 198 205 209 202 200 203 204 202 204 212 212 214 218 219 224 224 225 230 233 239 242 247 258 259 277 276 280 284 292 291 292 290 296
231 149 196 209 242 245 211 267 281 329 330 350 353 252 216 207 200 204 206 205 206 207 206 208 209 209 215 212 213 217 220 227 229 232 231 233 236 240 248 250 258 271 277 282 289 290 289 291 299
177 207 207 222 228 255 261 254 205 276 330 336 344 308 219 212 217 211 201 206 209 205 203 206 207 209 210 213 213 214 216 220 225 225 231 234 238 240 243 246 254 258 262 277 272 268 290 298 299
234 265 236 236 199 232 281 258 277 292 332 332 341 346 256 225 213 212 215 206 199 199 201 202 204 206 212 212 207 214 214 214 217 223 226 227 230 234 237 243 246 250 266 283 275 284 293 287 305